User: anonymous
Location: Lawrence Hall of Science
(37.8785°N, 122.2415°W)
Time: 14:25:19
(UTC-07:00)
Language:

ARGOS - Orbit

View from above orbital plane
View from above orbital plane
View from above satellite
View from above satellite

Ground track
Ground track

The orbit data is extracted from the following two-line orbital elements,

1 25634U 99008A   14113.80903961  .00000094  00000-0  66002-4 0  1423
2 25634 098.7643 181.9204 0009141 278.2364 191.0339 14.19146801785293
Epoch (UTC): 23 April 2014 19:25:01
Eccentricity: 0.0009141
inclination: 98.7643°
perigee height: 821 km
apogee height: 835 km
right ascension of ascending node: 181.9204°
argument of perigee: 278.2364°
revolutions per day: 14.19146801
mean anomaly at epoch: 191.0339°
orbit number at epoch: 78529

The dashed part of the orbit path shows where the satellite is in the earth's shadow,  

DLR